�������l�o���
Date,Time,MP-1(��Sv/h),MP-2(��Sv/h),MP-3(��Sv/h),MP-4(��Sv/h),MP-5(��Sv/h),MP-6(��Sv/h),MP-7(��Sv/h),MP-8(��Sv/h),����,����(m/s),���J
2017/11/30,00:00,0.909,1.481,0.945,1.772,1.206,0.500,0.895,0.849,�k,2.5,��
2017/11/30,00:10,0.908,1.484,0.945,1.772,1.209,0.500,0.894,0.851,�k�k��,3.6,��
2017/11/30,00:20,0.907,1.483,0.947,1.772,1.211,0.501,0.895,0.850,�k�k��,3.8,��
2017/11/30,00:30,0.907,1.482,0.945,1.776,1.208,0.499,0.897,0.851,�k�k��,3.3,��
2017/11/30,00:40,0.907,1.483,0.944,1.772,1.210,0.500,0.895,0.850,�k�k��,4.0,��
2017/11/30,00:50,0.909,1.485,0.943,1.772,1.207,0.500,0.895,0.851,�k,4.4,��
2017/11/30,01:00,0.907,1.480,0.944,1.772,1.206,0.499,0.895,0.852,�k,6.1,��
2017/11/30,01:10,0.908,1.482,0.946,1.771,1.209,0.500,0.895,0.852,�k,5.0,��
2017/11/30,01:20,0.907,1.481,0.944,1.771,1.207,0.500,0.895,0.850,�k,3.9,��
2017/11/30,01:30,0.907,1.482,0.943,1.773,1.207,0.500,0.897,0.849,�k,4.3,��
2017/11/30,01:40,0.907,1.482,0.945,1.772,1.208,0.499,0.894,0.849,�k�k��,5.6,��
2017/11/30,01:50,0.905,1.480,0.942,1.771,1.208,0.500,0.895,0.850,�k�k��,5.6,��
2017/11/30,02:00,0.908,1.480,0.943,1.771,1.208,0.499,0.894,0.849,�k�k��,6.3,��
2017/11/30,02:10,0.907,1.482,0.942,1.771,1.207,0.499,0.898,0.852,�k�k��,6.5,��
2017/11/30,02:20,0.906,1.483,0.944,1.772,1.208,0.497,0.894,0.851,�k�k��,5.9,��
2017/11/30,02:30,0.905,1.483,0.942,1.772,1.208,0.499,0.896,0.849,�k�k��,5.2,��
2017/11/30,02:40,0.908,1.483,0.943,1.772,1.208,0.499,0.895,0.849,�k,4.0,��
2017/11/30,02:50,0.906,1.482,0.944,1.770,1.207,0.498,0.894,0.850,�k,3.8,��
2017/11/30,03:00,0.908,1.482,0.943,1.770,1.207,0.499,0.896,0.850,�k,4.9,��
2017/11/30,03:10,0.907,1.482,0.943,1.771,1.207,0.500,0.897,0.849,�k,6.2,��
2017/11/30,03:20,0.905,1.483,0.943,1.770,1.209,0.498,0.894,0.850,�k�k��,6.2,��
2017/11/30,03:30,0.906,1.483,0.942,1.771,1.206,0.499,0.896,0.850,�k,4.8,��
2017/11/30,03:40,0.906,1.481,0.941,1.773,1.206,0.499,0.895,0.851,�k,6.6,��
2017/11/30,03:50,0.907,1.483,0.942,1.769,1.207,0.500,0.895,0.850,�k,7.6,��
2017/11/30,04:00,0.906,1.484,0.942,1.772,1.209,0.497,0.892,0.851,�k,8.5,��
2017/11/30,04:10,0.906,1.482,0.943,1.772,1.210,0.498,0.893,0.851,�k,8.0,��
2017/11/30,04:20,0.903,1.482,0.939,1.771,1.207,0.500,0.894,0.852,�k,9.2,��
2017/11/30,04:30,0.905,1.484,0.945,1.770,1.206,0.497,0.893,0.850,�k,7.5,��
2017/11/30,04:40,0.905,1.485,0.942,1.771,1.208,0.499,0.896,0.850,�k,7.5,��
2017/11/30,04:50,0.907,1.482,0.941,1.774,1.208,0.500,0.895,0.849,�k,7.8,��
2017/11/30,05:00,0.908,1.481,0.942,1.770,1.206,0.499,0.893,0.850,�k�k��,7.9,��
2017/11/30,05:10,0.907,1.481,0.942,1.774,1.208,0.498,0.895,0.850,�k,8.1,��
2017/11/30,05:20,0.905,1.484,0.941,1.774,1.209,0.497,0.893,0.848,�k,8.5,��
2017/11/30,05:30,0.906,1.484,0.942,1.772,1.207,0.497,0.892,0.849,�k�k��,9.9,��
2017/11/30,05:40,0.906,1.482,0.944,1.772,1.207,0.498,0.892,0.850,�k�k��,9.4,��
2017/11/30,05:50,0.906,1.480,0.943,1.772,1.208,0.497,0.894,0.849,�k,9.1,��
2017/11/30,06:00,0.906,1.481,0.942,1.770,1.209,0.498,0.892,0.849,�k,7.7,��
2017/11/30,06:10,0.906,1.483,0.943,1.773,1.210,0.497,0.896,0.851,�k,7.3,��
2017/11/30,06:20,0.905,1.484,0.944,1.771,1.210,0.498,0.893,0.849,�k,7.6,��
2017/11/30,06:30,0.906,1.483,0.941,1.771,1.208,0.500,0.894,0.850,�k,6.4,��
2017/11/30,06:40,0.906,1.477,0.942,1.772,1.208,0.499,0.894,0.851,�k,6.6,��
2017/11/30,06:50,0.906,1.480,0.946,1.771,1.207,0.497,0.895,0.848,�k,6.4,��
2017/11/30,07:00,0.904,1.480,0.943,1.770,1.208,0.498,0.896,0.851,�k,7.7,��
2017/11/30,07:10,0.905,1.482,0.944,1.774,1.206,0.499,0.895,0.851,�k,7.5,��
2017/11/30,07:20,0.905,1.481,0.943,1.773,1.206,0.497,0.892,0.850,�k,6.8,��
2017/11/30,07:30,0.905,1.481,0.943,1.773,1.211,0.499,0.893,0.848,�k,7.2,��
2017/11/30,07:40,0.906,1.486,0.942,1.773,1.209,0.498,0.893,0.849,�k,6.3,��
2017/11/30,07:50,0.908,1.483,0.943,1.772,1.207,0.497,0.894,0.851,�k,6.1,��
2017/11/30,08:00,0.905,1.481,0.939,1.772,1.206,0.497,0.895,0.850,�k,6.0,��
2017/11/30,08:10,0.905,1.481,0.941,1.772,1.207,0.498,0.895,0.849,�k,6.4,��
2017/11/30,08:20,0.907,1.483,0.939,1.769,1.209,0.497,0.893,0.849,�k,6.3,��
2017/11/30,08:30,0.906,1.480,0.942,1.772,1.206,0.498,0.894,0.849,�k,7.0,��
2017/11/30,08:40,0.905,1.479,0.939,1.773,1.206,0.498,0.891,0.848,�k,6.7,��
2017/11/30,08:50,0.905,1.480,0.942,1.772,1.206,0.496,0.893,0.849,�k,5.9,��
2017/11/30,09:00,0.907,1.477,0.941,1.770,1.209,0.497,0.892,0.851,�k,5.2,��
2017/11/30,09:10,0.906,1.480,0.939,1.771,1.208,0.496,0.892,0.849,�k,4.2,��
2017/11/30,09:20,0.906,1.478,0.943,1.771,1.208,0.497,0.894,0.850,�k,4.4,��
2017/11/30,09:30,0.905,1.480,0.938,1.772,1.207,0.498,0.894,0.851,�k,3.3,��
2017/11/30,09:40,0.906,1.476,0.940,1.774,1.209,0.497,0.894,0.850,�k�k��,3.7,��
2017/11/30,09:50,0.907,1.476,0.939,1.774,1.208,0.497,0.892,0.850,�k,5.0,��
2017/11/30,10:00,0.906,1.477,0.937,1.774,1.206,0.497,0.895,0.849,�k,5.1,��
2017/11/30,10:10,0.905,1.478,0.940,1.773,1.208,0.498,0.893,0.849,�k,5.1,��
2017/11/30,10:20,0.906,1.479,0.940,1.770,1.210,0.496,0.894,0.851,�k,4.4,��
2017/11/30,10:30,0.905,1.478,0.939,1.775,1.205,0.499,0.893,0.850,�k,3.7,��
2017/11/30,10:40,0.908,1.478,0.939,1.774,1.207,0.490,0.892,0.850,�k,4.2,��
2017/11/30,10:50,0.906,1.479,0.942,1.774,1.206,0.495,0.893,0.848,�k,5.0,��
2017/11/30,11:00,0.908,1.481,0.944,1.771,1.206,0.497,0.893,0.849,�k�k��,6.0,��
2017/11/30,11:10,0.909,1.480,0.943,1.773,1.207,0.497,0.891,0.849,�k,5.2,��
2017/11/30,11:20,0.908,1.478,0.942,1.773,1.208,0.500,0.894,0.850,�k�k��,5.5,�L
2017/11/30,11:30,0.908,1.480,0.943,1.772,1.207,0.497,0.894,0.850,�k�k��,4.5,�L
2017/11/30,11:40,0.906,1.481,0.942,1.772,1.206,0.498,0.891,0.850,�k�k��,5.5,�L
2017/11/30,11:50,0.905,1.478,0.943,1.770,1.208,0.497,0.892,0.850,�k�k��,5.1,��
2017/11/30,12:00,0.905,1.482,0.942,1.773,1.209,0.499,0.894,0.850,�k�k��,5.1,��
2017/11/30,12:10,0.906,1.481,0.941,1.774,1.208,0.498,0.892,0.849,�k�k��,5.6,��
2017/11/30,12:20,0.907,1.487,0.942,1.775,1.211,0.497,0.896,0.850,�k�k��,5.5,��
2017/11/30,12:30,0.907,1.483,0.941,1.773,1.210,0.498,0.893,0.852,�k�k��,5.5,��
2017/11/30,12:40,0.907,1.483,0.942,1.771,1.210,0.496,0.892,0.851,�k�k��,5.2,��
2017/11/30,12:50,0.908,1.483,0.942,1.772,1.209,0.498,0.895,0.851,�k�k��,5.6,��
2017/11/30,13:00,0.908,1.485,0.943,1.771,1.210,0.498,0.895,0.848,�k,5.7,��
2017/11/30,13:10,0.911,1.483,0.941,1.775,1.209,0.500,0.894,0.851,�k�k��,5.5,��
2017/11/30,13:20,0.909,1.482,0.943,1.773,1.213,0.499,0.893,0.850,�k�k��,4.6,��
2017/11/30,13:30,0.909,1.482,0.942,1.776,1.209,0.498,0.894,0.851,�k,5.3,��
2017/11/30,13:40,0.908,1.484,0.943,1.773,1.211,0.498,0.894,0.852,�k,5.6,��
2017/11/30,13:50,0.908,1.481,0.941,1.772,1.209,0.495,0.894,0.851,�k�k��,5.0,��
2017/11/30,14:00,0.908,1.483,0.944,1.773,1.208,0.498,0.894,0.849,�k�k��,4.1,��
2017/11/30,14:10,0.908,1.484,0.942,1.775,1.209,0.497,0.894,0.849,�k�k��,4.0,��
2017/11/30,14:20,0.909,1.483,0.944,1.773,1.211,0.499,0.894,0.849,�k�k��,3.7,��
2017/11/30,14:30,0.907,1.482,0.943,1.775,1.208,0.498,0.894,0.851,�k�k��,4.3,��
2017/11/30,14:40,0.906,1.481,0.944,1.777,1.209,0.497,0.893,0.851,�k�k��,4.4,��
2017/11/30,14:50,0.909,1.482,0.944,1.773,1.211,0.497,0.893,0.851,�k�k��,4.6,��
2017/11/30,15:00,0.909,1.483,0.944,1.773,1.209,0.499,0.896,0.852,�k�k��,3.4,��
2017/11/30,15:10,0.906,1.484,0.943,1.776,1.210,0.498,0.895,0.850,�k�k��,3.7,��
2017/11/30,15:20,0.907,1.486,0.943,1.775,1.209,0.499,0.893,0.849,�k�k��,4.3,��
2017/11/30,15:30,0.908,1.484,0.944,1.775,1.210,0.499,0.895,0.849,�k�k��,3.5,��
2017/11/30,15:40,0.906,1.486,0.946,1.774,1.210,0.498,0.895,0.850,�k�k��,3.3,��
2017/11/30,15:50,0.910,1.482,0.943,1.774,1.208,0.499,0.895,0.851,�k��,3.2,��
2017/11/30,16:00,0.906,1.483,0.945,1.775,1.209,0.499,0.894,0.851,�k��,3.4,��
2017/11/30,16:10,0.907,1.486,0.944,1.774,1.209,0.498,0.894,0.848,�k�k��,3.2,��
2017/11/30,16:20,0.905,1.484,0.944,1.775,1.211,0.498,0.896,0.851,�k,2.3,��
2017/11/30,16:30,0.906,1.485,0.943,1.774,1.208,0.498,0.896,0.850,�k,3.0,�L
2017/11/30,16:40,0.906,1.485,0.945,1.775,1.210,0.498,0.896,0.850,�k,2.8,�L
2017/11/30,16:50,0.909,1.482,0.942,1.773,1.209,0.498,0.895,0.849,�k�k��,1.9,�L
2017/11/30,17:00,0.904,1.483,0.945,1.772,1.210,0.500,0.896,0.850,�k�k��,2.0,�L
2017/11/30,17:10,0.906,1.485,0.946,1.777,1.211,0.498,0.894,0.851,�k�k��,1.2,�L
2017/11/30,17:20,0.906,1.485,0.945,1.773,1.208,0.499,0.895,0.850,�k�k��,0.9,�L
2017/11/30,17:30,0.905,1.485,0.944,1.772,1.208,0.499,0.896,0.850,�k��,1.5,�L
2017/11/30,17:40,0.903,1.485,0.943,1.773,1.207,0.499,0.894,0.851,-,CALM,�L
2017/11/30,17:50,0.905,1.485,0.945,1.777,1.209,0.498,0.895,0.851,���k��,1.5,�L
2017/11/30,18:00,0.906,1.483,0.944,1.774,1.207,0.498,0.894,0.850,��,1.2,�L
2017/11/30,18:10,0.906,1.484,0.944,1.777,1.207,0.498,0.896,0.850,��쐼,1.2,�L
2017/11/30,18:20,0.904,1.482,0.942,1.774,1.209,0.499,0.896,0.850,�쐼,0.9,�L
2017/11/30,18:30,0.906,1.483,0.942,1.773,1.208,0.499,0.896,0.849,���쐼,1.5,�L
2017/11/30,18:40,0.907,1.485,0.945,1.774,1.209,0.499,0.897,0.851,��,1.9,�L
2017/11/30,18:50,0.908,1.482,0.944,1.774,1.208,0.499,0.895,0.849,���쐼,1.9,�L
2017/11/30,19:00,0.906,1.484,0.946,1.777,1.207,0.499,0.895,0.850,��,1.4,�L
2017/11/30,19:10,0.904,1.485,0.944,1.774,1.209,0.498,0.895,0.849,�쐼,0.9,�L
2017/11/30,19:20,0.906,1.484,0.942,1.774,1.206,0.499,0.894,0.849,��쐼,1.7,�L
2017/11/30,19:30,0.905,1.482,0.943,1.773,1.210,0.499,0.895,0.850,��,1.2,�L
2017/11/30,19:40,0.906,1.485,0.942,1.773,1.208,0.499,0.896,0.849,��,1.9,�L
2017/11/30,19:50,0.907,1.485,0.944,1.774,1.206,0.499,0.896,0.850,��,2.3,�L
2017/11/30,20:00,0.906,1.483,0.945,1.773,1.206,0.499,0.893,0.849,��,2.2,�L
2017/11/30,20:10,0.905,1.484,0.944,1.773,1.209,0.499,0.897,0.849,��,2.0,�L
2017/11/30,20:20,0.906,1.481,0.944,1.771,1.208,0.499,0.895,0.849,��쓌,1.5,�L
2017/11/30,20:30,0.906,1.482,0.943,1.773,1.208,0.499,0.896,0.849,��쓌,2.0,�L
2017/11/30,20:40,0.907,1.483,0.944,1.773,1.205,0.499,0.894,0.850,��쓌,2.3,�L
2017/11/30,20:50,0.908,1.482,0.944,1.770,1.204,0.499,0.893,0.850,�쐼,1.2,�L
2017/11/30,21:00,0.906,1.484,0.943,1.774,1.206,0.499,0.895,0.849,��쐼,1.5,�L
2017/11/30,21:10,0.906,1.484,0.942,1.775,1.208,0.499,0.895,0.850,��,1.4,�L
2017/11/30,21:20,0.906,1.482,0.946,1.774,1.206,0.498,0.896,0.850,�쓌,0.6,�L
2017/11/30,21:30,0.907,1.484,0.942,1.773,1.209,0.499,0.894,0.850,-,CALM,�L
2017/11/30,21:40,0.906,1.480,0.945,1.772,1.204,0.499,0.896,0.850,�k��,0.8,�L
2017/11/30,21:50,0.905,1.480,0.943,1.772,1.206,0.499,0.896,0.847,�k�k��,1.5,�L
2017/11/30,22:00,0.905,1.480,0.945,1.773,1.207,0.500,0.894,0.850,�k��,2.0,�L
2017/11/30,22:10,0.905,1.480,0.942,1.773,1.206,0.501,0.896,0.850,�k��,2.2,�L
2017/11/30,22:20,0.904,1.480,0.945,1.769,1.204,0.501,0.893,0.849,�k�k��,2.5,�L
2017/11/30,22:30,0.904,1.477,0.945,1.771,1.206,0.500,0.894,0.850,�k,3.8,�L
2017/11/30,22:40,0.903,1.480,0.944,1.767,1.201,0.500,0.894,0.850,�k,3.7,�L
2017/11/30,22:50,0.903,1.476,0.944,1.768,1.201,0.499,0.894,0.848,�k,3.5,�L
2017/11/30,23:00,0.903,1.475,0.943,1.770,1.203,0.500,0.894,0.849,�k�k��,3.9,�L
2017/11/30,23:10,0.902,1.471,0.941,1.770,1.202,0.498,0.894,0.848,�k�k��,3.3,�L
2017/11/30,23:20,0.902,1.472,0.943,1.769,1.201,0.499,0.892,0.848,�k,3.4,�L
2017/11/30,23:30,0.901,1.473,0.943,1.765,1.201,0.499,0.894,0.848,�k,3.5,�L
2017/11/30,23:40,0.899,1.471,0.939,1.767,1.199,0.499,0.894,0.848,�k,2.6,�L
2017/11/30,23:50,0.900,1.469,0.942,1.767,1.200,0.499,0.893,0.849,�k�k��,2.8,�L
